| time (UTC) | temp C | wind direction | speed KPH | gust KPH | rain 1hr cm | rain 24hr cm | rain mn cm | humidity % | barometer mb |
| 20260503053046 | 8 | 253 | 0.0 | 1.6 | 0.00 | 0.00 | 0.00 | 90 | 1020.9 |
| 20260503051550 | 7 | 253 | 0.0 | 0.0 | 0.00 | 0.00 | 0.00 | 93 | 1020.9 |
| 20260503050042 | 6 | 253 | 0.0 | 0.0 | 0.00 | 0.00 | 0.00 | 94 | 1021.0 |
| 20260503044541 | 5 | 253 | 0.0 | 0.0 | 0.00 | 0.00 | 0.00 | 94 | 1020.9 |
| 20260503043041 | 5 | 253 | 0.0 | 0.0 | 0.00 | 0.00 | 0.00 | 94 | 1020.9 |
| 20260503041541 | 4 | 253 | 0.0 | 0.0 | 0.00 | 0.00 | 0.00 | 93 | 1020.9 |
| 20260503040040 | 4 | 253 | 0.0 | 0.0 | 0.00 | 0.00 | 0.00 | 93 | 1020.9 |
| 20260503034537 | 4 | 253 | 0.0 | 0.0 | 0.00 | 0.00 | 0.00 | 93 | 1020.8 |
| 20260503033043 | 5 | 253 | 0.0 | 0.0 | 0.00 | 0.00 | 0.00 | 93 | 1020.8 |
| 20260503031535 | 5 | 253 | 0.0 | 0.0 | 0.00 | 0.00 | 0.00 | 93 | 1020.9 |
| 20260503030034 | 5 | 253 | 0.0 | 0.0 | 0.00 | 0.00 | 0.00 | 93 | 1020.9 |
| 20260503024532 | 5 | 253 | 0.0 | 0.0 | 0.00 | 0.00 | 0.00 | 93 | 1020.9 |
| 20260503023030 | 5 | 253 | 0.0 | 0.0 | 0.00 | 0.00 | 0.00 | 92 | 1020.9 |
| 20260503021529 | 5 | 253 | 0.0 | 0.0 | 0.00 | 0.00 | 0.00 | 92 | 1021.1 |
| 20260503020027 | 6 | 253 | 0.0 | 0.0 | 0.00 | 0.00 | 0.00 | 93 | 1021.2 |
| 20260503014540 | 6 | 253 | 0.0 | 0.0 | 0.00 | 0.00 | 0.00 | 92 | 1021.1 |
| 20260503013025 | 6 | 253 | 0.0 | 0.0 | 0.00 | 0.00 | 0.00 | 92 | 1021.1 |
| 20260503011522 | 6 | 253 | 0.0 | 1.6 | 0.00 | 0.00 | 0.00 | 92 | 1021.3 |
| 20260503010021 | 6 | 253 | 0.0 | 1.6 | 0.00 | 0.00 | 0.00 | 91 | 1021.3 |
| 20260503004525 | 6 | 253 | 0.0 | 0.0 | 0.00 | 0.00 | 0.00 | 90 | 1021.4 |
| 20260503003015 | 7 | 253 | 0.0 | 0.0 | 0.00 | 0.00 | 0.00 | 91 | 1021.4 |
| 20260503001514 | 7 | 253 | 0.0 | 0.0 | 0.00 | 0.00 | 0.00 | 91 | 1021.6 |
| 20260503000012 | 7 | 253 | 0.0 | 0.0 | 0.00 | 0.00 | 0.00 | 90 | 1021.6 |
| 20260502234509 | 7 | 253 | 0.0 | 0.0 | 0.00 | 0.00 | 0.00 | 89 | 1021.7 |
| 20260502233010 | 8 | 253 | 0.0 | 0.0 | 0.00 | 0.00 | 0.00 | 89 | 1021.8 |
| 20260502231505 | 8 | 253 | 0.0 | 0.0 | 0.00 | 0.00 | 0.00 | 87 | 1021.9 |
| 20260502230003 | 8 | 253 | 0.0 | 0.0 | 0.00 | 0.00 | 0.00 | 87 | 1021.9 |
| 20260502224616 | 9 | 253 | 0.0 | 0.0 | 0.00 | 0.00 | 0.00 | 86 | 1022.0 |
| 20260502223057 | 9 | 253 | 0.0 | 0.0 | 0.00 | 0.00 | 0.00 | 85 | 1022.0 |
| 20260502221556 | 10 | 253 | 0.0 | 3.2 | 0.00 | 0.00 | 0.00 | 84 | 1021.9 |
| 20260502220053 | 10 | 253 | 0.0 | 0.0 | 0.00 | 0.00 | 0.00 | 84 | 1022.0 |
| 20260502214552 | 10 | 253 | 0.0 | 0.0 | 0.00 | 0.00 | 0.00 | 82 | 1021.9 |
| 20260502213108 | 11 | 253 | 0.0 | 1.6 | 0.00 | 0.00 | 0.00 | 83 | 1021.9 |
| 20260502211613 | 11 | 253 | 0.0 | 1.6 | 0.00 | 0.00 | 0.00 | 82 | 1021.8 |
| 20260502210051 | 11 | 253 | 0.0 | 1.6 | 0.00 | 0.00 | 0.00 | 80 | 1021.8 |
| 20260502204550 | 11 | 253 | 0.0 | 0.0 | 0.00 | 0.00 | 0.00 | 79 | 1021.8 |
| 20260502203057 | 11 | 253 | 0.0 | 0.0 | 0.00 | 0.00 | 0.00 | 77 | 1021.9 |
| 20260502201556 | 12 | 253 | 0.0 | 1.6 | 0.00 | 0.00 | 0.00 | 75 | 1021.8 |
| 20260502200051 | 13 | 253 | 0.0 | 1.6 | 0.00 | 0.00 | 0.00 | 72 | 1021.8 |
| 20260502194600 | 13 | 253 | 0.0 | 1.6 | 0.00 | 0.00 | 0.00 | 71 | 1021.7 |
| 20260502193048 | 14 | 253 | 0.0 | 1.6 | 0.00 | 0.00 | 0.00 | 70 | 1021.6 |
| 20260502191549 | 15 | 253 | 0.0 | 3.2 | 0.00 | 0.00 | 0.00 | 67 | 1021.5 |
| 20260502190048 | 16 | 253 | 0.0 | 3.2 | 0.00 | 0.00 | 0.00 | 64 | 1021.4 |
| 20260502184554 | 16 | 253 | 1.6 | 9.7 | 0.00 | 0.00 | 0.00 | 62 | 1021.2 |
| 20260502183057 | 16 | 215 | 0.0 | 1.6 | 0.00 | 0.00 | 0.00 | 62 | 1020.9 |
| 20260502181547 | 17 | 211 | 0.0 | 3.2 | 0.00 | 0.00 | 0.00 | 60 | 1020.8 |
| 20260502163049 | 22 | 163 | 0.0 | 8.0 | 0.00 | 0.00 | 0.00 | 39 | 1020.7 |
| 20260502161542 | 23 | 131 | 0.0 | 9.7 | 0.00 | 0.00 | 0.00 | 37 | 1020.8 |
| 20260502151538 | 23 | 147 | 3.2 | 11.3 | 0.00 | 0.00 | 0.00 | 35 | 1021.2 |
| 20260502123015 | 22 | 17 | 6.4 | 11.3 | 0.00 | 0.00 | 0.00 | 36 | 1023.6 |
| 20260502121512 | 22 | 154 | 1.6 | 9.7 | 0.00 | 0.00 | 0.00 | 37 | 1023.8 |
| 20260502114505 | 21 | 319 | 1.6 | 12.9 | 0.00 | 0.00 | 0.00 | 39 | 1024.0 |
| 20260502113002 | 21 | 213 | 6.4 | 11.3 | 0.00 | 0.00 | 0.00 | 38 | 1024.3 |
| 20260502111559 | 21 | 223 | 3.2 | 9.7 | 0.00 | 0.00 | 0.00 | 40 | 1024.6 |
| 20260502110058 | 21 | 253 | 0.0 | 6.4 | 0.00 | 0.00 | 0.00 | 40 | 1024.8 |
| 20260502104556 | 21 | 159 | 3.2 | 8.0 | 0.00 | 0.00 | 0.00 | 37 | 1025.0 |
| 20260502103053 | 21 | 228 | 3.2 | 11.3 | 0.00 | 0.00 | 0.00 | 42 | 1025.1 |
| 20260502101618 | 20 | 205 | 1.6 | 8.0 | 0.00 | 0.00 | 0.00 | 40 | 1025.4 |
| 20260502071514 | 11 | 188 | 0.0 | 4.8 | 0.00 | 0.00 | 0.00 | 73 | 1027.6 |
| 20260502070017 | 10 | 155 | 1.6 | 8.0 | 0.00 | 0.00 | 0.00 | 75 | 1027.8 |
| 20260502064513 | 10 | 194 | 3.2 | 8.0 | 0.00 | 0.00 | 0.00 | 76 | 1027.9 |
| 20260502063007 | 8 | 236 | 0.0 | 6.4 | 0.00 | 0.00 | 0.00 | 78 | 1028.0 |
| 20260502061505 | 8 | 124 | 0.0 | 0.0 | 0.00 | 0.00 | 0.00 | 81 | 1028.1 |
| 20260502060008 | 7 | 123 | 0.0 | 0.0 | 0.00 | 0.00 | 0.00 | 83 | 1028.2 |
| 20260502054559 | 6 | 123 | 0.0 | 0.0 | 0.00 | 0.00 | 0.00 | 87 | 1028.3 |